TimeCST,TemperatureF,Dew PointF,Humidity,Sea Level PressureIn,VisibilityMPH,Wind Direction,Wind SpeedMPH,Gust SpeedMPH,PrecipitationIn,Events,Conditions,WindDirDegrees,DateUTC
12:13 AM,15.8,12.2,86,29.91,10.0,West,11.5,-,N/A,,Overcast,280,2012-11-12 06:13:00
12:32 AM,15.8,12.2,86,29.92,10.0,West,10.4,-,N/A,,Overcast,280,2012-11-12 06:32:00
12:53 AM,15.8,12.2,86,29.92,10.0,West,12.7,-,N/A,Snow,Light Snow,280,2012-11-12 06:53:00
1:12 AM,17.6,14.0,86,29.91,10.0,West,11.5,-,N/A,Snow,Light Snow,270,2012-11-12 07:12:00
1:32 AM,17.6,15.8,93,29.91,7.0,West,10.4,-,N/A,Snow,Light Snow,270,2012-11-12 07:32:00
1:53 AM,19.4,15.8,86,29.91,4.0,West,8.1,-,N/A,Snow,Light Snow,280,2012-11-12 07:53:00
2:12 AM,19.4,15.8,86,29.91,4.0,West,10.4,-,N/A,Snow,Light Snow,280,2012-11-12 08:12:00
2:33 AM,19.4,15.8,86,29.90,7.0,West,10.4,-,N/A,Snow,Light Snow,280,2012-11-12 08:33:00
2:53 AM,19.4,17.6,93,29.90,4.0,West,10.4,-,N/A,Snow,Light Snow,280,2012-11-12 08:53:00
3:33 AM,19.4,17.6,93,29.91,2.5,NNW,12.7,-,N/A,Snow,Light Snow,330,2012-11-12 09:33:00
3:53 AM,19.4,15.8,86,29.91,4.0,NW,21.9,-,N/A,Snow,Light Snow,320,2012-11-12 09:53:00
4:12 AM,19.4,15.8,86,29.92,3.0,NW,16.1,21.9,N/A,Snow,Light Snow,320,2012-11-12 10:12:00
4:33 AM,19.4,15.8,86,29.92,3.0,NW,17.3,-,N/A,Snow,Light Snow,320,2012-11-12 10:33:00
4:53 AM,19.4,15.8,86,29.93,3.0,NW,17.3,-,N/A,Snow,Light Snow,320,2012-11-12 10:53:00
5:12 AM,19.4,15.8,86,29.93,4.0,NW,15.0,-,N/A,Snow,Light Snow,320,2012-11-12 11:12:00
5:33 AM,19.4,15.8,86,29.94,7.0,NW,13.8,-,N/A,Snow,Light Snow,320,2012-11-12 11:33:00
5:53 AM,19.4,15.8,86,29.94,10.0,NW,16.1,24.2,N/A,Snow,Light Snow,320,2012-11-12 11:53:00
6:12 AM,19.4,15.8,86,29.95,5.0,NW,16.1,23.0,N/A,Snow,Light Snow,320,2012-11-12 12:12:00
6:33 AM,17.6,15.8,93,29.95,1.8,NNW,15.0,-,N/A,Snow,Light Snow,330,2012-11-12 12:33:00
6:53 AM,17.6,15.8,93,29.96,3.0,NW,16.1,-,N/A,Snow,Light Snow,320,2012-11-12 12:53:00
7:12 AM,17.6,12.2,79,29.97,10.0,NW,20.7,25.3,N/A,Snow,Light Snow,320,2012-11-12 13:12:00
7:33 AM,17.6,12.2,79,29.98,7.0,NNW,13.8,25.3,N/A,Snow,Light Snow,330,2012-11-12 13:33:00
7:53 AM,15.8,12.2,86,29.99,10.0,NNW,13.8,-,N/A,Snow,Light Snow,330,2012-11-12 13:53:00
8:12 AM,15.8,10.4,79,30.00,10.0,NW,13.8,-,N/A,Snow,Light Snow,320,2012-11-12 14:12:00
8:52 AM,15.8,10.4,79,30.02,10.0,NNW,20.7,26.5,N/A,Snow,Light Snow,330,2012-11-12 14:52:00
9:12 AM,17.6,10.4,73,30.03,10.0,NNW,19.6,-,N/A,,Mostly Cloudy,330,2012-11-12 15:12:00
9:33 AM,17.6,10.4,73,30.03,10.0,NW,20.7,27.6,N/A,,Overcast,320,2012-11-12 15:33:00
9:52 AM,17.6,10.4,73,30.04,10.0,NNW,19.6,-,N/A,,Overcast,330,2012-11-12 15:52:00
10:13 AM,17.6,10.4,73,30.05,10.0,NNW,18.4,25.3,N/A,Snow,Light Snow,330,2012-11-12 16:13:00
10:52 AM,19.4,12.2,74,30.07,10.0,NNW,19.6,23.0,N/A,,Overcast,330,2012-11-12 16:52:00
11:13 AM,21.2,12.2,68,30.08,10.0,NNW,21.9,25.3,N/A,,Overcast,330,2012-11-12 17:13:00
11:52 AM,21.2,14.0,74,30.08,10.0,NNW,17.3,23.0,N/A,,Overcast,330,2012-11-12 17:52:00
12:13 PM,23.0,14.0,68,30.08,10.0,NNW,19.6,25.3,N/A,,Mostly Cloudy,330,2012-11-12 18:13:00
12:52 PM,23.0,15.8,74,30.09,10.0,NW,15.0,-,N/A,,Mostly Cloudy,320,2012-11-12 18:52:00
1:13 PM,24.8,15.8,69,30.10,10.0,NW,18.4,24.2,N/A,,Mostly Cloudy,320,2012-11-12 19:13:00
1:32 PM,23.0,15.8,74,30.10,10.0,NNW,17.3,24.2,N/A,,Overcast,330,2012-11-12 19:32:00
1:53 PM,24.8,15.8,69,30.10,10.0,NW,16.1,-,N/A,,Mostly Cloudy,320,2012-11-12 19:53:00
2:13 PM,24.8,15.8,69,30.11,10.0,NNW,17.3,23.0,N/A,,Overcast,330,2012-11-12 20:13:00
2:32 PM,24.8,17.6,74,30.12,10.0,NNW,16.1,20.7,N/A,,Overcast,330,2012-11-12 20:32:00
2:53 PM,24.8,17.6,74,30.12,10.0,NW,12.7,16.1,N/A,,Mostly Cloudy,320,2012-11-12 20:53:00
3:13 PM,24.8,15.8,69,30.13,10.0,NW,16.1,23.0,N/A,,Scattered Clouds,320,2012-11-12 21:13:00
3:53 PM,24.8,15.8,69,30.15,10.0,NW,15.0,-,N/A,,Clear,320,2012-11-12 21:53:00
4:13 PM,24.8,15.8,69,30.16,10.0,NNW,15.0,20.7,N/A,,Clear,330,2012-11-12 22:13:00
4:32 PM,23.0,15.8,74,30.16,10.0,NNW,11.5,-,N/A,,Clear,330,2012-11-12 22:32:00
4:53 PM,23.0,15.8,74,30.17,10.0,NNW,9.2,-,N/A,,Clear,330,2012-11-12 22:53:00
5:13 PM,21.2,15.8,80,30.17,10.0,NNW,5.8,-,N/A,,Clear,340,2012-11-12 23:13:00
5:32 PM,19.4,15.8,86,30.18,10.0,NW,4.6,-,N/A,,Clear,320,2012-11-12 23:32:00
5:53 PM,17.6,15.8,93,30.19,10.0,Calm,Calm,-,N/A,,Clear,0,2012-11-12 23:53:00
6:13 PM,17.6,14.0,86,30.21,10.0,NNW,4.6,-,N/A,,Clear,330,2012-11-13 00:13:00
6:32 PM,15.8,12.2,86,30.21,10.0,NW,3.5,-,N/A,,Clear,320,2012-11-13 00:32:00
6:53 PM,17.6,14.0,86,30.21,10.0,NNW,3.5,-,N/A,,Clear,330,2012-11-13 00:53:00
7:13 PM,15.8,12.2,86,30.22,10.0,NW,4.6,-,N/A,,Clear,320,2012-11-13 01:13:00
7:32 PM,15.8,12.2,86,30.22,10.0,Calm,Calm,-,N/A,,Clear,0,2012-11-13 01:32:00
7:53 PM,15.8,12.2,86,30.22,10.0,Calm,Calm,-,N/A,,Clear,0,2012-11-13 01:53:00
8:12 PM,14.0,12.2,93,30.23,10.0,Calm,Calm,-,N/A,,Clear,0,2012-11-13 02:12:00
8:32 PM,14.0,12.2,93,30.23,10.0,Calm,Calm,-,N/A,,Clear,0,2012-11-13 02:32:00
8:53 PM,15.8,12.2,86,30.23,10.0,West,3.5,-,N/A,,Clear,280,2012-11-13 02:53:00
9:12 PM,15.8,10.4,79,30.23,10.0,Calm,Calm,-,N/A,,Clear,0,2012-11-13 03:12:00
9:32 PM,15.8,10.4,79,30.24,10.0,WSW,3.5,-,N/A,,Clear,250,2012-11-13 03:32:00
9:53 PM,15.8,10.4,79,30.25,10.0,Calm,Calm,-,N/A,,Clear,0,2012-11-13 03:53:00
10:12 PM,15.8,10.4,79,30.25,10.0,Calm,Calm,-,N/A,,Clear,0,2012-11-13 04:12:00
10:33 PM,12.2,10.4,92,30.25,10.0,Calm,Calm,-,N/A,,Clear,0,2012-11-13 04:33:00
10:53 PM,14.0,10.4,86,30.26,10.0,WSW,3.5,-,N/A,,Clear,250,2012-11-13 04:53:00
11:12 PM,15.8,12.2,86,30.26,10.0,WSW,5.8,-,N/A,,Clear,250,2012-11-13 05:12:00
11:33 PM,15.8,10.4,79,30.26,10.0,WSW,4.6,-,N/A,,Clear,240,2012-11-13 05:33:00
11:52 PM,15.8,10.4,79,30.26,10.0,WSW,3.5,-,N/A,,Clear,250,2012-11-13 05:52:00